[[{"header":{"parameterUnit":"m.s-1","parameterCategory":2,"la1":30.2992,"la2":30.254,"lo1":-89.0895,"lo2":-89.0443,"dy":0.0025,"dx":0.0025,"nx":19,"ny":19,"refTime":"2026-03-17T09:00:00:Z","depth":"0","parameterNumber":2,"parameterNumberName":"U-component_of_CURRENTS"},"data":[0,0,0,-0.2345,-0.2346,-0.2407,-0.2407,-0.2473,-0.2474,0,0,0,0,0,0,0,0,0,0,0,-0.2317,-0.2317,-0.2345,-0.2346,-0.2407,-0.2407,-0.2473,-0.2474,0,0,0,0,0,0,0,0,0,0,0,-0.2317,-0.2317,-0.2317,-0.2346,-0.2407,-0.2407,-0.2473,-0.243,0,0,0,0,0,0,0,0,0,0,-0.2373,-0.234,-0.2317,-0.2317,-0.2347,-0.2407,-0.2407,-0.2428,-0.2433,-0.2442,0,-0.2448,0,-0.2465,-0.2478,-0.2478,0,0,0,-0.2347,-0.2336,-0.2362,-0.2317,-0.2347,-0.2407,-0.238,-0.2431,-0.2436,-0.2448,-0.2449,-0.2452,-0.2467,-0.2478,-0.2479,-0.2551,-0.2552,0,0,-0.2343,-0.232,-0.2358,-0.2365,-0.2358,-0.2378,-0.2381,-0.2434,-0.2431,-0.2449,-0.2454,-0.2468,-0.2479,-0.2479,-0.2551,-0.2551,0,0,0,-0.2333,-0.2318,-0.2343,-0.2362,-0.2376,-0.2379,-0.2384,-0.2429,-0.244,-0.2454,-0.2468,-0.2479,-0.248,-0.2551,-0.2551,-0.2547,0,0,0,-0.2331,-0.2312,-0.2341,-0.2327,-0.2375,-0.2403,-0.2377,-0.2436,-0.2443,-0.2468,-0.2479,-0.2481,-0.255,-0.2551,-0.2546,-0.2539,0,0,0,-0.2315,-0.2311,-0.2318,-0.2326,-0.2354,-0.2403,-0.2416,-0.2438,-0.2451,-0.2478,-0.2481,-0.255,-0.2551,-0.2545,-0.2538,-0.2539,0,0,0,-0.2289,-0.23,-0.2317,-0.234,-0.2353,-0.2411,-0.2416,-0.2451,-0.2473,-0.248,-0.255,-0.2551,-0.2545,-0.2538,-0.2539,-0.248,-0.2476,0,0,-0.2292,-0.2299,-0.2317,-0.2335,-0.2384,-0.2403,-0.2453,-0.2477,-0.249,-0.2531,-0.2533,-0.2546,-0.2538,-0.2539,-0.2526,-0.2521,0,0,0,-0.2313,-0.2319,-0.234,-0.237,-0.2417,-0.2453,-0.2484,-0.2498,-0.2529,-0.2508,-0.2564,-0.2559,-0.256,-0.2524,-0.2521,-0.2443,-0.2555,-0.2555,-0.2555,-0.2274,-0.2314,-0.2341,-0.2391,-0.243,-0.2488,-0.2514,-0.2539,-0.2551,-0.2562,-0.2569,-0.2584,-0.2547,-0.2544,-0.2465,-0.2587,-0.2587,-0.2587,-0.2587,-0.2266,-0.2273,-0.2331,-0.2365,-0.2423,-0.2462,-0.2537,-0.255,-0.2583,-0.2585,-0.2586,-0.2537,-0.2539,-0.2457,-0.2587,-0.2587,-0.2587,-0.2587,-0.2587,-0.2222,-0.2227,-0.2259,-0.2307,-0.2361,-0.2437,-0.2485,-0.2542,-0.2571,-0.2581,-0.2542,-0.2542,-0.2457,-0.2581,-0.2581,-0.2581,-0.2581,-0.2581,-0.2581,-0.2145,-0.2182,-0.218,-0.2247,-0.227,-0.2337,-0.2451,-0.2488,-0.2525,-0.2533,-0.2533,-0.2452,-0.2582,-0.2568,-0.2581,-0.2581,-0.2581,-0.2581,-0.2581,-0.2067,-0.208,-0.2073,-0.209,-0.2154,-0.2176,-0.2327,-0.2402,-0.2454,-0.2451,-0.238,-0.2509,-0.2502,-0.2505,-0.2489,-0.2481,-0.2481,-0.2481,-0.2481,-0.199,-0.2006,-0.1954,-0.1954,-0.1996,-0.2089,-0.2111,-0.222,-0.228,-0.2263,-0.2297,-0.2271,-0.2279,-0.2259,-0.2267,-0.2246,-0.2177,-0.2176,-0.2176,-0.1922,-0.192,-0.1845,-0.1856,-0.1902,-0.1966,-0.1954,-0.2034,-0.2126,-0.2158,-0.2201,-0.2214,-0.2174,-0.2192,-0.216,-0.2177,-0.2144,0,0]},{"header":{"parameterUnit":"m.s-1","parameterCategory":2,"la1":30.2992,"la2":30.254,"lo1":-89.0895,"lo2":-89.0443,"dy":0.0025,"dx":0.0025,"nx":19,"ny":19,"refTime":"2026-03-17T09:00:00:Z","depth":"0","parameterNumber":3,"parameterNumberName":"V-component_of_CURRENTS"},"data":[0,0,0,-0.0509,-0.0509,-0.0477,-0.0476,-0.0405,-0.0404,0,0,0,0,0,0,0,0,0,0,0,-0.0514,-0.0514,-0.0509,-0.0509,-0.0477,-0.0476,-0.0405,-0.0404,0,0,0,0,0,0,0,0,0,0,0,-0.0514,-0.0514,-0.0514,-0.0509,-0.0477,-0.0476,-0.0405,-0.0433,0,0,0,0,0,0,0,0,0,0,-0.0467,-0.0483,-0.0514,-0.0514,-0.0509,-0.0477,-0.0476,-0.0435,-0.0432,-0.0416,0,-0.0417,0,-0.0418,-0.04,-0.04,0,0,0,-0.0494,-0.0486,-0.048,-0.0514,-0.0509,-0.0477,-0.0487,-0.0433,-0.0429,-0.0411,-0.0416,-0.0414,-0.0416,-0.04,-0.0399,-0.0389,-0.0389,0,0,-0.0496,-0.0503,-0.0482,-0.0478,-0.0508,-0.0488,-0.0486,-0.0431,-0.0428,-0.0416,-0.0412,-0.0415,-0.0399,-0.0399,-0.0389,-0.0389,0,0,0,-0.0511,-0.0504,-0.0499,-0.048,-0.0482,-0.0488,-0.0485,-0.043,-0.043,-0.0411,-0.0414,-0.0399,-0.0398,-0.0388,-0.0389,-0.0457,0,0,0,-0.0512,-0.0514,-0.0501,-0.0503,-0.0483,-0.0461,-0.0486,-0.0433,-0.0428,-0.0415,-0.0399,-0.0398,-0.0388,-0.0389,-0.0454,-0.0494,0,0,0,-0.0515,-0.0515,-0.0514,-0.0504,-0.0498,-0.0462,-0.0457,-0.0432,-0.043,-0.04,-0.0398,-0.0388,-0.0388,-0.0452,-0.049,-0.0491,0,0,0,-0.0518,-0.0543,-0.0514,-0.0548,-0.0498,-0.0514,-0.0458,-0.0456,-0.0438,-0.0399,-0.0388,-0.0389,-0.0451,-0.0487,-0.0489,-0.0511,-0.0523,0,0,-0.0558,-0.0548,-0.0572,-0.0546,-0.0586,-0.0517,-0.054,-0.0488,-0.0442,-0.04,-0.04,-0.0455,-0.0489,-0.0491,-0.0558,-0.0569,0,0,0,-0.0592,-0.0609,-0.0615,-0.063,-0.062,-0.0603,-0.055,-0.0517,-0.0476,-0.0437,-0.0453,-0.0472,-0.0471,-0.0479,-0.0488,-0.0364,-0.0393,-0.0393,-0.0392,-0.0648,-0.0657,-0.0702,-0.0706,-0.0705,-0.0662,-0.0638,-0.058,-0.0528,-0.0519,-0.0525,-0.0573,-0.0584,-0.0591,-0.0463,-0.0517,-0.0517,-0.0517,-0.0518,-0.073,-0.0768,-0.0768,-0.0812,-0.0787,-0.0788,-0.0719,-0.0672,-0.0623,-0.058,-0.0574,-0.0549,-0.0604,-0.0464,-0.0522,-0.0521,-0.0521,-0.052,-0.052,-0.078,-0.0801,-0.0822,-0.088,-0.0899,-0.0864,-0.0874,-0.0794,-0.0698,-0.0694,-0.0664,-0.0663,-0.0539,-0.068,-0.068,-0.068,-0.068,-0.068,-0.068,-0.0821,-0.0846,-0.0907,-0.0951,-0.0989,-0.1009,-0.0956,-0.0917,-0.0819,-0.0747,-0.0746,-0.0546,-0.0621,-0.0614,-0.0684,-0.0683,-0.0683,-0.0682,-0.0682,-0.0888,-0.0894,-0.0991,-0.1043,-0.1132,-0.1198,-0.1129,-0.1041,-0.0958,-0.0908,-0.0638,-0.0755,-0.0729,-0.0721,-0.0715,-0.0807,-0.0807,-0.0807,-0.0807,-0.0925,-0.0939,-0.1073,-0.1174,-0.1266,-0.129,-0.1321,-0.118,-0.0872,-0.0706,-0.0618,-0.0573,-0.0574,-0.0534,-0.053,-0.0518,-0.0558,-0.0557,-0.0557,-0.0968,-0.1007,-0.1111,-0.1217,-0.1335,-0.1396,-0.1436,-0.1277,-0.0794,-0.0531,-0.044,-0.0451,-0.0367,-0.0377,-0.0299,-0.0304,-0.0278,0,0]}],[{"header":{"parameterUnit":"m.s-1","parameterCategory":2,"la1":30.2992,"la2":30.254,"lo1":-89.0895,"lo2":-89.0443,"dy":0.0025,"dx":0.0025,"nx":19,"ny":19,"refTime":"2026-03-17T09:00:00:Z","depth":"2","parameterNumber":2,"parameterNumberName":"U-component_of_CURRENTS"},"data":[0,0,0,-0.232,-0.2321,-0.2381,-0.2381,-0.2447,-0.2447,0,0,0,0,0,0,0,0,0,0,0,-0.2292,-0.2293,-0.232,-0.2321,-0.2381,-0.2381,-0.2447,-0.2447,0,0,0,0,0,0,0,0,0,0,0,-0.2292,-0.2293,-0.2293,-0.2321,-0.2381,-0.2381,-0.2447,-0.2404,0,0,0,0,0,0,0,0,0,0,-0.2347,-0.2316,-0.2292,-0.2293,-0.2322,-0.2381,-0.2381,-0.2402,-0.2407,-0.2416,0,-0.2422,0,-0.2439,-0.2451,-0.2452,0,0,0,-0.2322,-0.2312,-0.2337,-0.2293,-0.2322,-0.2381,-0.2354,-0.2405,-0.241,-0.2422,-0.2423,-0.2426,-0.244,-0.2452,-0.2452,-0.2523,-0.2523,0,0,-0.2318,-0.2296,-0.2333,-0.234,-0.2333,-0.2352,-0.2356,-0.2408,-0.2406,-0.2423,-0.2427,-0.2441,-0.2452,-0.2453,-0.2523,-0.2523,0,0,0,-0.2308,-0.2294,-0.2318,-0.2337,-0.2351,-0.2354,-0.2358,-0.2403,-0.2414,-0.2428,-0.2442,-0.2453,-0.2453,-0.2522,-0.2523,-0.252,0,0,0,-0.2306,-0.2288,-0.2316,-0.2303,-0.2349,-0.2378,-0.2352,-0.241,-0.2417,-0.2442,-0.2453,-0.2454,-0.2522,-0.2523,-0.2519,-0.2512,0,0,0,-0.229,-0.2287,-0.2294,-0.2302,-0.233,-0.2377,-0.2391,-0.2412,-0.2425,-0.2452,-0.2454,-0.2522,-0.2523,-0.2518,-0.2511,-0.2513,0,0,0,-0.2266,-0.2276,-0.2293,-0.2315,-0.2329,-0.2385,-0.2391,-0.2425,-0.2447,-0.2453,-0.2522,-0.2523,-0.2518,-0.2511,-0.2512,-0.244,-0.2436,0,0,-0.2268,-0.2276,-0.2293,-0.2311,-0.2358,-0.2377,-0.2425,-0.245,-0.2463,-0.2503,-0.2505,-0.2519,-0.2511,-0.2513,-0.2485,-0.2479,0,0,0,-0.2288,-0.2294,-0.2315,-0.2344,-0.2389,-0.2425,-0.2456,-0.247,-0.2502,-0.2481,-0.2536,-0.2531,-0.2532,-0.2488,-0.2484,-0.2527,-0.2526,-0.2526,-0.2526,-0.2251,-0.229,-0.2315,-0.2364,-0.2402,-0.2459,-0.2485,-0.2511,-0.2522,-0.2534,-0.2541,-0.2556,-0.2511,-0.2507,-0.2559,-0.2559,-0.2559,-0.2559,-0.2559,-0.2243,-0.2249,-0.2305,-0.2339,-0.2395,-0.2434,-0.2508,-0.2521,-0.2554,-0.2558,-0.2558,-0.2503,-0.2502,-0.2559,-0.2559,-0.2559,-0.2559,-0.2559,-0.2559,-0.22,-0.2204,-0.2236,-0.2282,-0.2335,-0.241,-0.2456,-0.2514,-0.2544,-0.2554,-0.2507,-0.2506,-0.2541,-0.2555,-0.2555,-0.2555,-0.2555,-0.2555,-0.2555,-0.2124,-0.216,-0.2159,-0.2224,-0.2247,-0.2312,-0.2424,-0.2459,-0.2493,-0.2497,-0.2497,-0.2555,-0.2555,-0.2541,-0.2555,-0.2555,-0.2555,-0.2555,-0.2555,-0.2046,-0.2061,-0.2054,-0.207,-0.2132,-0.2139,-0.2296,-0.2363,-0.2418,-0.241,-0.2465,-0.2467,-0.2459,-0.2462,-0.2446,-0.2434,-0.2434,-0.2434,-0.2434,-0.1971,-0.1987,-0.1937,-0.1936,-0.1975,-0.2048,-0.2027,-0.2061,-0.2178,-0.2186,-0.2197,-0.2167,-0.2178,-0.2153,-0.2163,-0.2141,-0.2049,-0.2048,-0.2047,-0.1905,-0.1902,-0.1829,-0.1839,-0.1882,-0.1912,-0.1814,-0.1692,-0.179,-0.2027,-0.2084,-0.2417,-0.2403,-0.2409,-0.2395,-0.2401,-0.2375,0,0]},{"header":{"parameterUnit":"m.s-1","parameterCategory":2,"la1":30.2992,"la2":30.254,"lo1":-89.0895,"lo2":-89.0443,"dy":0.0025,"dx":0.0025,"nx":19,"ny":19,"refTime":"2026-03-17T09:00:00:Z","depth":"2","parameterNumber":3,"parameterNumberName":"V-component_of_CURRENTS"},"data":[0,0,0,-0.0431,-0.0431,-0.0402,-0.0402,-0.0332,-0.0332,0,0,0,0,0,0,0,0,0,0,0,-0.0436,-0.0436,-0.0431,-0.0431,-0.0402,-0.0402,-0.0332,-0.0332,0,0,0,0,0,0,0,0,0,0,0,-0.0436,-0.0436,-0.0436,-0.0431,-0.0402,-0.0401,-0.0332,-0.0359,0,0,0,0,0,0,0,0,0,0,-0.039,-0.0405,-0.0436,-0.0436,-0.0431,-0.0402,-0.0401,-0.036,-0.0357,-0.0341,0,-0.0343,0,-0.0344,-0.0328,-0.0327,0,0,0,-0.0416,-0.0408,-0.0402,-0.0436,-0.0431,-0.0402,-0.0411,-0.0359,-0.0355,-0.0337,-0.0342,-0.034,-0.0343,-0.0327,-0.0327,-0.0318,-0.0318,0,0,-0.0418,-0.0425,-0.0405,-0.0401,-0.0431,-0.0412,-0.041,-0.0357,-0.0354,-0.0342,-0.0339,-0.0342,-0.0327,-0.0326,-0.0318,-0.0318,0,0,0,-0.0433,-0.0426,-0.0422,-0.0403,-0.0405,-0.0411,-0.0409,-0.0356,-0.0356,-0.0338,-0.0341,-0.0327,-0.0326,-0.0317,-0.0318,-0.0387,0,0,0,-0.0433,-0.0436,-0.0423,-0.0426,-0.0407,-0.0386,-0.041,-0.0359,-0.0354,-0.0342,-0.0327,-0.0325,-0.0317,-0.0317,-0.0384,-0.0424,0,0,0,-0.0435,-0.0436,-0.0436,-0.0426,-0.0421,-0.0387,-0.0383,-0.0358,-0.0356,-0.0327,-0.0325,-0.0317,-0.0317,-0.0382,-0.0419,-0.042,0,0,0,-0.0438,-0.0464,-0.0436,-0.047,-0.0422,-0.0438,-0.0383,-0.0383,-0.0365,-0.0326,-0.0317,-0.0318,-0.0381,-0.0416,-0.0418,-0.043,-0.0442,0,0,-0.0479,-0.0469,-0.0493,-0.0468,-0.0508,-0.0441,-0.0465,-0.0414,-0.0369,-0.0328,-0.0328,-0.0385,-0.0419,-0.042,-0.0478,-0.0488,0,0,0,-0.0512,-0.053,-0.0536,-0.0551,-0.0543,-0.0527,-0.0476,-0.0444,-0.0405,-0.0365,-0.0382,-0.0402,-0.04,-0.0402,-0.041,-0.0322,-0.0321,-0.0321,-0.0321,-0.057,-0.0578,-0.0623,-0.0627,-0.0627,-0.0586,-0.0564,-0.0508,-0.0456,-0.0449,-0.0456,-0.0503,-0.0508,-0.0514,-0.0447,-0.0447,-0.0448,-0.0448,-0.0448,-0.0652,-0.0689,-0.0689,-0.0734,-0.071,-0.0713,-0.0645,-0.06,-0.0553,-0.0511,-0.0505,-0.0473,-0.0527,-0.0454,-0.0452,-0.0452,-0.0451,-0.0451,-0.045,-0.0701,-0.0722,-0.0744,-0.0802,-0.0823,-0.0789,-0.08,-0.0722,-0.0628,-0.0625,-0.0588,-0.0587,-0.0536,-0.0611,-0.0611,-0.0611,-0.0611,-0.0611,-0.0611,-0.0743,-0.0768,-0.083,-0.0874,-0.0912,-0.0933,-0.0882,-0.0844,-0.0743,-0.067,-0.0669,-0.0557,-0.0552,-0.0544,-0.0614,-0.0614,-0.0614,-0.0613,-0.0613,-0.0809,-0.0816,-0.0914,-0.0966,-0.1054,-0.1104,-0.1047,-0.0957,-0.0878,-0.0825,-0.0676,-0.0673,-0.0645,-0.0638,-0.0632,-0.072,-0.072,-0.072,-0.072,-0.0846,-0.086,-0.0995,-0.1095,-0.1185,-0.119,-0.1181,-0.0994,-0.0808,-0.0686,-0.0687,-0.0656,-0.0654,-0.0623,-0.0616,-0.0607,-0.0689,-0.0689,-0.0689,-0.0888,-0.0928,-0.1032,-0.1138,-0.1252,-0.1279,-0.1234,-0.0942,-0.0655,-0.0684,-0.0641,-0.0726,-0.0683,-0.0678,-0.0629,-0.0619,-0.0604,0,0]}],[{"header":{"parameterUnit":"m.s-1","parameterCategory":2,"la1":30.2992,"la2":30.254,"lo1":-89.0895,"lo2":-89.0443,"dy":0.0025,"dx":0.0025,"nx":19,"ny":19,"refTime":"2026-03-17T09:00:00:Z","depth":"4","parameterNumber":2,"parameterNumberName":"U-component_of_CURRENTS"},"data":[0,0,0,-0.1704,-0.1707,-0.1839,-0.184,-0.1957,-0.1958,0,0,0,0,0,0,0,0,0,0,0,-0.1665,-0.1666,-0.1704,-0.1707,-0.1839,-0.184,-0.1957,-0.1958,0,0,0,0,0,0,0,0,0,0,0,-0.1665,-0.1666,-0.1667,-0.1707,-0.1839,-0.184,-0.1957,-0.1871,0,0,0,0,0,0,0,0,0,0,-0.1749,-0.172,-0.1666,-0.1667,-0.1708,-0.1839,-0.184,-0.1868,-0.1876,-0.188,0,-0.1908,0,-0.1929,-0.1964,-0.1964,0,0,0,-0.1713,-0.1713,-0.1746,-0.1667,-0.1709,-0.1839,-0.1781,-0.1873,-0.1883,-0.1891,-0.1909,-0.1914,-0.1931,-0.1965,-0.1965,-0.2058,-0.2059,0,0,-0.1705,-0.1691,-0.1739,-0.1752,-0.1752,-0.1777,-0.1785,-0.188,-0.1893,-0.191,-0.1917,-0.1933,-0.1965,-0.1966,-0.2058,-0.2058,0,0,0,-0.168,-0.1685,-0.1718,-0.1747,-0.1772,-0.1781,-0.179,-0.189,-0.19,-0.1918,-0.1934,-0.1966,-0.1967,-0.2058,-0.2058,-0.2068,0,0,0,-0.1676,-0.167,-0.1714,-0.1707,-0.1771,-0.184,-0.1798,-0.1894,-0.1905,-0.1934,-0.1966,-0.1968,-0.2057,-0.2058,-0.2067,-0.2059,0,0,0,-0.1658,-0.1668,-0.1686,-0.1706,-0.176,-0.1839,-0.1856,-0.1897,-0.1914,-0.1964,-0.1968,-0.2057,-0.2058,-0.2066,-0.2058,-0.2061,0,0,0,-0.1634,-0.1658,-0.1686,-0.1724,-0.1758,-0.1833,-0.1856,-0.1923,-0.1968,-0.1966,-0.2057,-0.2058,-0.2066,-0.2057,-0.2061,-0.1828,0,0,0,-0.1644,-0.1659,-0.1681,-0.1708,-0.1768,-0.1815,-0.1884,-0.1953,-0.1978,-0.2022,-0.2026,-0.2068,-0.2058,-0.2061,-0.1879,0,0,0,0,-0.167,-0.1685,-0.171,-0.1756,-0.1814,-0.1874,-0.1942,-0.1972,-0.2037,-0.2008,-0.2081,-0.2075,-0.2076,-0.194,-0.2062,-0.2062,-0.2062,-0.2062,-0.2062,-0.1646,-0.1684,-0.1723,-0.178,-0.1835,-0.1923,-0.1971,-0.2023,-0.2052,-0.2083,-0.2094,-0.2116,-0.1974,-0.2113,-0.2113,-0.2113,-0.2113,-0.2113,-0.2113,-0.1639,-0.1647,-0.1723,-0.1776,-0.1851,-0.1917,-0.2007,-0.2042,-0.2101,-0.2115,-0.2116,-0.1974,-0.2115,-0.2114,-0.2114,-0.2114,-0.2114,-0.2114,-0.2114,-0.159,-0.1596,-0.166,-0.1738,-0.1822,-0.1917,-0.1964,-0.2048,-0.2101,-0.2119,-0.1977,-0.2121,-0.2107,-0.213,-0.213,-0.213,-0.213,-0.213,-0.213,-0.1496,-0.1558,-0.1597,-0.1697,-0.1745,-0.1824,-0.1949,-0.1974,-0.2055,-0.1956,-0.2127,-0.2122,-0.2121,-0.2108,-0.213,-0.213,-0.213,-0.213,-0.213,-0.1394,-0.1454,-0.1485,-0.1538,-0.1634,-0.1671,-0.1829,-0.1829,-0.1837,-0.1791,-0.1863,-0.1877,-0.1847,-0.1853,-0.1829,-0.177,-0.1767,-0.1764,0,-0.1316,-0.135,-0.1381,-0.1416,-0.144,-0.1565,-0.1519,-0.1582,-0.1647,-0.1592,-0.184,-0.1922,-0.193,-0.1899,-0.19,-0.1871,0,0,0,-0.1243,-0.1269,-0.125,-0.1316,-0.1337,-0.1373,-0.1491,-0.1451,-0.1643,-0.1585,-0.169,-0.1709,-0.198,-0.213,-0.2116,-0.2115,-0.2093,0,0]},{"header":{"parameterUnit":"m.s-1","parameterCategory":2,"la1":30.2992,"la2":30.254,"lo1":-89.0895,"lo2":-89.0443,"dy":0.0025,"dx":0.0025,"nx":19,"ny":19,"refTime":"2026-03-17T09:00:00:Z","depth":"4","parameterNumber":3,"parameterNumberName":"V-component_of_CURRENTS"},"data":[0,0,0,-0.0184,-0.0185,-0.0187,-0.0187,-0.016,-0.016,0,0,0,0,0,0,0,0,0,0,0,-0.018,-0.018,-0.0184,-0.0185,-0.0187,-0.0187,-0.016,-0.016,0,0,0,0,0,0,0,0,0,0,0,-0.018,-0.018,-0.018,-0.0185,-0.0187,-0.0187,-0.016,-0.0163,0,0,0,0,0,0,0,0,0,0,-0.0164,-0.017,-0.018,-0.018,-0.0185,-0.0187,-0.0187,-0.0164,-0.0163,-0.0154,0,-0.0159,0,-0.0165,-0.0158,-0.0158,0,0,0,-0.0175,-0.017,-0.0171,-0.018,-0.0185,-0.0187,-0.0183,-0.0164,-0.0163,-0.0153,-0.0159,-0.0158,-0.0164,-0.0158,-0.0158,-0.0177,-0.0178,0,0,-0.0175,-0.0177,-0.0172,-0.0171,-0.0192,-0.0183,-0.0183,-0.0163,-0.0165,-0.0159,-0.0158,-0.0164,-0.0158,-0.0158,-0.0177,-0.0177,0,0,0,-0.0181,-0.0177,-0.0179,-0.0172,-0.0178,-0.0184,-0.0184,-0.0165,-0.0166,-0.0158,-0.0164,-0.0158,-0.0158,-0.0177,-0.0177,-0.024,0,0,0,-0.018,-0.0182,-0.0179,-0.018,-0.0179,-0.0177,-0.0186,-0.0167,-0.0166,-0.0164,-0.0158,-0.0157,-0.0176,-0.0177,-0.0238,-0.027,0,0,0,-0.0178,-0.0182,-0.0184,-0.0181,-0.0187,-0.0178,-0.0177,-0.0167,-0.0169,-0.0158,-0.0157,-0.0176,-0.0177,-0.0235,-0.0266,-0.0267,0,0,0,-0.0177,-0.0201,-0.0184,-0.0218,-0.0187,-0.0218,-0.0177,-0.0193,-0.019,-0.0158,-0.0176,-0.0177,-0.0235,-0.0263,-0.0265,-0.0253,0,0,0,-0.021,-0.0205,-0.0227,-0.0213,-0.026,-0.0216,-0.0255,-0.023,-0.0198,-0.0178,-0.0178,-0.0239,-0.0266,-0.0267,-0.0307,0,0,0,0,-0.0241,-0.0258,-0.0269,-0.0292,-0.0299,-0.0305,-0.028,-0.0262,-0.0247,-0.0202,-0.0239,-0.0254,-0.0253,-0.024,-0.0182,-0.0181,-0.0181,-0.0181,-0.0181,-0.0281,-0.0297,-0.0343,-0.0362,-0.0377,-0.0368,-0.0364,-0.0333,-0.0296,-0.0298,-0.0307,-0.0353,-0.0344,-0.0303,-0.0304,-0.0304,-0.0304,-0.0304,-0.0305,-0.0344,-0.0375,-0.04,-0.0451,-0.0456,-0.0479,-0.0448,-0.0419,-0.0396,-0.0363,-0.0358,-0.031,-0.0311,-0.031,-0.0309,-0.0308,-0.0307,-0.0307,-0.0307,-0.0371,-0.0389,-0.0428,-0.0503,-0.0547,-0.0547,-0.057,-0.0527,-0.046,-0.0462,-0.0417,-0.0388,-0.038,-0.0451,-0.0451,-0.0451,-0.0451,-0.0451,-0.0451,-0.0376,-0.0417,-0.0485,-0.0555,-0.0607,-0.0648,-0.0638,-0.0611,-0.0542,-0.049,-0.0476,-0.0402,-0.0397,-0.0387,-0.0454,-0.0454,-0.0453,-0.0453,-0.0453,-0.039,-0.0424,-0.0524,-0.0589,-0.0701,-0.0726,-0.0725,-0.0646,-0.0609,-0.0544,-0.0487,-0.0485,-0.0454,-0.0448,-0.0438,-0.0523,-0.0523,-0.0523,0,-0.0395,-0.0419,-0.0562,-0.0667,-0.0752,-0.0771,-0.0742,-0.0693,-0.059,-0.0584,-0.0597,-0.0538,-0.0534,-0.0503,-0.0497,-0.0489,0,0,0,-0.0398,-0.0453,-0.0545,-0.0671,-0.0774,-0.0743,-0.073,-0.0694,-0.0613,-0.0558,-0.0525,-0.0524,-0.0507,-0.0462,-0.0408,-0.0402,-0.0383,0,0]}]]